Brooklyn Center, MN

3:21 AM CST on February 10, 2016 (GMT -0600)
Crystal

Weather History for KMIC - October, 2013

Change the Weather History Date:

Wednesday, October 2, 2013

  Actual Average Record
Temperature  
Mean Temperature 58 °F -  
Max Temperature 75 °F 62 °F 84 °F (2001)
Min Temperature 42 °F 39 °F 23 °F (2003)
Degree Days  
Heating Degree Days 6    
Growing Degree Days 8 (Base 50)    
Moisture  
Dew Point 45 °F    
Average Humidity 65    
Maximum Humidity 94    
Minimum Humidity 23    
Precipitation  
Precipitation 0.70 in - - ()
Sea Level Pressure  
Sea Level Pressure 29.94 in    
Wind  
Wind Speed 5 mph (East)    
Max Wind Speed 17 mph    
Max Gust Speed 23 mph    
Visibility 9 miles    
Events Rain , Thunderstorm    
Averages and records for this station are not official NWS values.
T = Trace of Precipitation, MM = Missing Value Source: NWS Daily Summary

Daily Weather History Graph

Daily Weather History Graph

Search for Another Location

Airport or City:

Trip Planner

Search our weather history database for the weather conditions in past years. The results will help you decide how hot, cold, wet, or windy it might be!

Date:

Astronomy

Oct. 02, 2013 Rise Set
Actual Time 7:13 AM CDT 6:51 PM CDT
Civil Twilight 6:43 AM CDT 7:20 PM CDT
Nautical Twilight 6:09 AM CDT 7:54 PM CDT
Astronomical Twilight 5:35 AM CDT 8:29 PM CDT
Moon 4:41 AM CDT (10/2) 5:31 PM CDT (10/2)
Length of Visible Light 12h 36m
Length of Day
11h 38m
Waning Crescent, 6% of the Moon is Illuminated
Oct 2
Waning Crescent
Oct 4
New
Oct 11
First Quarter
Oct 18
Full
Oct 26
Last Quarter

Hourly Weather History & Observations

Time (CDT) Temp. Windchill Dew Point Humidity Pressure Visibility Wind Dir Wind Speed Gust Speed Precip Events Conditions
1:53 AM 46.0 °F - 37.9 °F 73% 30.01 in 10.0 mi Calm Calm - N/A   Clear
2:53 AM 45.0 °F - 39.0 °F 80% 30.01 in 10.0 mi Calm Calm - N/A   Clear
3:53 AM 45.0 °F - 39.0 °F 80% 30.03 in 10.0 mi Calm Calm - N/A   Clear
4:53 AM 43.0 °F - 39.0 °F 86% 30.03 in 10.0 mi Calm Calm - N/A   Clear
5:53 AM 43.0 °F 41.3 °F 39.0 °F 86% 30.03 in 10.0 mi South 3.5 mph - N/A   Clear
6:53 AM 42.1 °F - 39.0 °F 89% 30.03 in 10.0 mi Calm Calm - N/A   Clear
7:53 AM 44.1 °F - 41.0 °F 89% 30.04 in 10.0 mi Calm Calm - N/A   Clear
8:53 AM 57.0 °F - 45.0 °F 64% 30.04 in 10.0 mi SE 3.5 mph - N/A   Clear
9:53 AM 60.1 °F - 42.1 °F 51% 30.04 in 10.0 mi SE 4.6 mph - N/A   Clear
10:53 AM 66.9 °F - 43.0 °F 42% 30.03 in 10.0 mi SE 4.6 mph - N/A   Clear
11:53 AM 71.1 °F - 36.0 °F 28% 30.01 in 10.0 mi SE 9.2 mph - N/A   Clear
12:53 PM 73.0 °F - 36.0 °F 26% 30.01 in 10.0 mi SE 9.2 mph 19.6 mph N/A   Partly Cloudy
1:53 PM 75.0 °F - 35.1 °F 23% 29.97 in 10.0 mi SE 8.1 mph - N/A   Overcast
2:53 PM 75.0 °F - 36.0 °F 24% 29.92 in 10.0 mi SE 16.1 mph 21.9 mph N/A   Scattered Clouds
3:53 PM 75.0 °F - 37.9 °F 26% 29.89 in 10.0 mi ESE 11.5 mph 21.9 mph N/A   Mostly Cloudy
4:53 PM 75.0 °F - 39.0 °F 27% 29.86 in 10.0 mi SE 11.5 mph - N/A   Mostly Cloudy
5:53 PM 73.0 °F - 39.0 °F 29% 29.85 in 10.0 mi SE 9.2 mph - N/A   Mostly Cloudy
6:31 PM 73.4 °F - 39.2 °F 29% 29.87 in 10.0 mi North 12.7 mph - N/A Thunderstorm Mostly Cloudy
6:50 PM 69.8 °F - 44.6 °F 40% 29.87 in 10.0 mi NNE 9.2 mph - 0.00 in Rain , Thunderstorm Light Rain
6:53 PM 68.0 °F - 45.0 °F 43% 29.88 in 10.0 mi NNE 6.9 mph - 0.00 in Rain , Thunderstorm Light Rain
7:27 PM 62.6 °F - 51.8 °F 68% 29.88 in 10.0 mi East 8.1 mph - 0.02 in Rain , Thunderstorm Light Rain
7:53 PM 60.1 °F - 52.0 °F 75% 29.89 in 6.0 mi ENE 5.8 mph - 0.07 in Rain , Thunderstorm Thunderstorms and Rain
8:34 PM 59.0 °F - 53.6 °F 82% 29.88 in 10.0 mi ENE 4.6 mph - 0.04 in   Overcast
8:53 PM 57.9 °F - 54.0 °F 87% 29.91 in 10.0 mi North 9.2 mph - 0.04 in   Overcast
9:04 PM 57.2 °F - 53.6 °F 88% 29.91 in 10.0 mi NNE 8.1 mph - 0.00 in Rain , Thunderstorm Light Rain
9:33 PM 55.4 °F - 51.8 °F 88% 29.95 in 2.5 mi NW 15.0 mph 21.9 mph 0.17 in Rain , Thunderstorm Thunderstorms and Rain
9:53 PM 55.9 °F - 53.1 °F 90% 29.93 in 3.0 mi East 10.4 mph - 0.41 in Rain Rain
10:05 PM 55.4 °F - 53.6 °F 94% 29.88 in 5.0 mi East 17.3 mph 23.0 mph 0.03 in Rain , Thunderstorm Thunderstorms and Rain
10:34 PM 57.2 °F - 53.6 °F 88% 29.86 in 7.0 mi ESE 9.2 mph - 0.09 in Rain , Thunderstorm Light Rain
10:53 PM 57.0 °F - 54.0 °F 89% 29.86 in 10.0 mi ESE 5.8 mph - 0.11 in Rain Light Rain
11:05 PM 57.2 °F - 53.6 °F 88% 29.84 in 9.0 mi East 6.9 mph - 0.00 in Rain , Thunderstorm Light Rain
11:20 PM 57.2 °F - 53.6 °F 88% 29.87 in 10.0 mi SE 4.6 mph - 0.01 in Rain Light Rain
11:53 PM 57.9 °F - 55.0 °F 90% 29.84 in 7.0 mi ESE 5.8 mph - 0.07 in Rain Light Rain